Powrót do katalogu

STARLINK-5421

AktywnyŁącznośćVLEO
NORAD 54799·PAYLOAD·🇺🇸 United States

Wystrzelony Dec 17, 2022 z Cape Canaveral Space Force Station

Loading…

Następne Przeloty (najbliższe 24 godziny)

TLE

ŚwieżeSource: CelesTrak SupGP

Epoka: Sep 14, 2026, 21:10 UTC

1 54799C 22175AT  26257.88243056  .00040449  00000+0  11572-2 0  2574
2 54799  53.1576 243.8113 0001467  83.6101  85.2270 15.35379548    17

Śledź STARLINK-5421 w czasie rzeczywistym z AllMySat

Download on the App Store